Flag for Canada Weather past 2 weeks in Lethbridge, Alberta, Canada

Now
52 °F

Partly sunny.


Feels Like: 46 °F
Forecast: 30 / 50 °F
Wind: 22 mph from South

Location: Lethbridge


UV Index: 0 (Low)

Visibility: 40 mi


Pressure: 29.79 "Hg

Humidity: 58%

Dew point: 37 °F

Location of LethbridgeLocation

Historic Weather in Lethbridge

°F

Lethbridge temperature yesterday

Maximum temperature yesterday: 36 °F (at 6:00 PM)
Minimum temperature yesterday: 27 °F (at 7:00 AM)
Average temperature yesterday: 31 °F

Past Weeks' High & Low Weather Summary

 TemperatureHumidityPressure
High70 °F (Apr 8, 3:00 PM)100% (Apr 3, 5:00 AM)30.46 "Hg (Apr 3, 5:00 AM)
Low16 °F (Apr 13, 3:00 AM)16% (Apr 14, 5:00 PM)29.54 "Hg (Apr 9, 3:00 AM)
Average41 °F61%29.96 "Hg
* Reported Apr 2 2:00 PM — Apr 17 2:00 PM, Lethbridge, Weather by CustomWeather, © 2014

Note: Actual official high and low records may vary slightly from our data, if they occured in-between our weather recording intervals... More about our weather records

Advertising

Historic Weather Conditions — Data for Previous 24 hours

 ConditionsComfort  
Time TempWeatherWind HumidityBarometerVisibility
2:00 PM
Apr 17
52 °FPartly sunny.22 mph58%29.79 "Hg40 mi
1:00 PM50 °FOvercast.20 mph62%29.80 "Hg30 mi
12:00 PM46 °FPartly sunny.8 mph66%29.83 "Hg30 mi
11:00 AM46 °FPartly sunny.10 mph71%29.85 "Hg30 mi
10:00 AM41 °FPartly sunny.9 mph81%29.86 "Hg30 mi
9:00 AM34 °FPartly sunny.3 mph100%29.88 "Hg10 mi
8:00 AM28 °FIce fog.5 mph100%29.89 "Hg0 mi
7:00 AM28 °FIce fog.2 mph100%29.90 "Hg0 mi
6:49 AM30 °FIce fog.2 mph93%29.90 "Hg0 mi
6:00 AM30 °FIce fog.3 mph100%29.90 "Hg2 mi
5:00 AM30 °FPassing clouds.6 mph93%29.92 "Hg7 mi
4:00 AM30 °FIce fog.8 mph100%29.94 "Hg4 mi
3:00 AM32 °FFog.6 mph100%29.96 "Hg1 mi
2:56 AM32 °FFog.6 mph100%29.97 "Hg1 mi
2:00 AM30 °FIce fog.9 mph100%29.98 "Hg4 mi
1:00 AM34 °FOvercast.7 mph87%30.00 "Hg9 mi
12:00 AM34 °FOvercast.3 mph100%30.01 "Hg7 mi
11:00 PM
Apr 16
34 °FFog.5 mph100%30.03 "Hg6 mi
10:00 PM34 °FLight rain. Overcast.8 mph100%30.04 "Hg10 mi
9:00 PM34 °FBroken clouds.8 mph93%30.06 "Hg15 mi
8:00 PM36 °FOvercast.7 mph87%30.07 "Hg15 mi
7:00 PM36 °FOvercast.10 mph87%30.08 "Hg15 mi
6:00 PM36 °FOvercast.9 mph81%30.10 "Hg15 mi
5:00 PM34 °FPartly sunny.12 mph87%30.10 "Hg15 mi
4:00 PM34 °FPartly sunny.12 mph81%30.11 "Hg10 mi
3:00 PM32 °FOvercast.8 mph87%30.13 "Hg10 mi
Weather by CustomWeather, © 2014

See weather overview